Погода Петропавловск-Каз.

Погода Петропавловск-Каз. : погода сейчас, прогноз погоды и архив. Всё, что Вы хотите узнать о погоде Петропавловск-Каз.!

Поиск расширенной информации на нашем сайте:

Другие новости

Новости СМИ2

Главная страница сайта

Новости сайта

03.07.2017

Напоминаем, что на нашем специализированном сайте Метеоцентр.Азия вы можете получить высокодетализированные автоматические прогнозы погоды по пунктам России, СНГ и мира в авиационном формате (включающие направление и скорость ветра, видимость, явления погоды, количество и форму облачности, нижнюю и верхнюю границу облачности).


Погода Петропавловск-Каз. - сегодня

Время (UTC), дата Ветер
(°,м/с) 
Видим.   Явления Облачность Т
(°С)
Тd
(°С)
f(%) Тe
(°С)
Pmin
(гПа)
dP
(гПа)
Po
(мм)
O2
(г/м3)
Тmin Tmax R s Состояние
почвы
18 14.10.17 090 (В) н/о    10/10 1000 м 
[Sc]
+5.7 +2.5 80 +5  1011.9  -1  750  295    +7.7       
21 14.10.17 050 (СВ) н/о  дымка  10/10 1000 м 
[Sc]
+5 +3.6 91 +6  1010.8  -1.1  749  296           
03 15.10.17 290 (З) 4000 м  дымка  10/10 1000 м 
[Sc]
+4.2 +3 92 +4  1010.7  0.3  749  297           
06 15.10.17 340 (С) 4000 м  слаб. ливневой дождь  10/10 600 м кучево-дожд. 
[Cb cap]
+5.2 +3.8 91 +4  1010.9  0.2  749  296  +4         
09 15.10.17 300 (СЗ) 10 км  {ливн. осадки}  10/8 1000 м средняя 
[Sc|Ac As]
+6.8 +1.6 69 +5  1011.1  0.3  749  294           
21 15.10.17 220 (ЮЗ) н/о  дымка  ясно 
-2.2 -2.8 96 -2  1015.6  752  306           
00 16.10.17 тихо ()   н/о  дымка  ясно 
-4.4 -5.7 91 -4  1016.5  0.8  753  309           
06 16.10.17 070 (В) 10 км    3/0 средняя 
[Ac trans]
+5.8 -1.2 61 +7  1018.2  0.6  754  298  -5         
09 16.10.17 160 (Ю) 10 км    ясно 
+10.4 -1.4 44 +11  1018.3  0.2  755  293           
12 16.10.17 130 (ЮВ) 10 км    3/0 средняя, верхняя 
[Ac trans|Ci fib]
+8.5 -2.6 45 +9  1019  0.6  755  295           
15 16.10.17 040 (СВ) н/о    ясно 
+0.1 -2.6 82 +1  1020.3  756  305    +10.8       
18 16.10.17 тихо ()   н/о  дымка  ясно 
-0.5 -1.4 94 -1  1020.8  0.4  756  305    +10.8       
21 16.10.17 050 (СВ) н/о  дымка  ясно 
-1.9 -2.5 96 -1  1020.6  -0.2  756  307           
00 17.10.17 110 (В) н/о  дымка  ясно 
+0.2 -0.7 94 -1  1020.1  -0.4  756  304           
06 17.10.17 090 (В) 4000 м  дымка  10/10 1000 м 
[Sc]
+3.4 +2.1 91 +1  1019.5  -0.3  755  300  -2.6         
09 17.10.17 120 (ЮВ) 10 км    8/3 1000 м средняя, верхняя 
[Sc|Ac trans|Ci fib]
+7 +1.5 68 +4  1017.6  -1.8  754  296           
12 17.10.17 120 (ЮВ) 9{18}  10 км    8/6 1000 м средняя 
[Sc|Ac trans]
+4.4 +1.6 82 +1  1016.3  -1.4  753  298           
15 17.10.17 110 (В) 8{18}  н/о    10/10 1000 м 
[Sc]
+4.9 +2.2 83 +2  1014.8  -1.4  752  297    +7.5       
18 17.10.17 130 (ЮВ) 7{18}  н/о    9/9 1000 м 
[Sc]
+4.5 +2 84 +2  1013.3  -1.6  751  297    +7.5       
21 17.10.17 130 (ЮВ) н/о    4/0 средняя 
[Ac trans]
+2.6 +1.3 91 1010.5  -2.8  749  299           
00 18.10.17 110 (В) н/о    9/9 1000 м 
[Sc]
+2.4 +1.4 93 -1  1008.2  -2.3  747  298           
06 18.10.17 100 (В) 10 км    8/0 средняя, верхняя 
[Ac trans|Cs]
+6.9 +1.8 70 +4  1004.6  -1.7  744  292  +2.2         
09 18.10.17 110 (В) 8-15{15}  10 км    9/8 1000 м кучево-дожд., средняя 
[Cb cap|Ac trans]
+11.3 +2.8 56 +10  1002.5  -1.9  743  287           
12 18.10.17 140 (ЮВ) 5{15}  10 км  в посл. час ливневой дождь  10/10 600 м кучево-дожд. 
[Cb cap]
+10.4 +4.1 65 +9  1002.4  -0.1  743  288           
18 18.10.17 220 (ЮЗ) н/о  {ливн. осадки}  10/10 1000 м 
[Sc]
+8.6 +3.5 70 +7  1004.5  744  290    +11.3  0.4     
Время (UTC), дата Ветер
(°,м/с) 
Видим.   Явления Облачность Т
(°С)
Тd
(°С)
f(%) Тe
(°С)
Pmin
(гПа)
dP
(гПа)
Po
(мм)
O2
(г/м3)
Тmin Tmax R s Состояние
почвы

Для получения пояснительной информации подведите курсор к названию столбца.

ПОГОДА Петропавловск-Каз. - архив

Всё, что Вы хотите узнать о погоде Петропавловск-Каз. - удобно и подробно!

Выберите нужную дату (начиная с 1 января 2015* года) и нажмите кнопку "Найти".
Будут отображены архивные сводки погоды по пункту Петропавловск-Каз., начиная с указанной даты.


Отображать данные в формате CSV (для использования в таблицах Excel)


Внимание! Наш архив погоды предназначен исключительно для личного некоммерческого использования в познавательных целях. Если Вам необходимы официальные справки о состоянии погоды (для производственных, юридических, коммерческих и т.п. целей), обращайтесь в органы Росгидромета.

*Примечание: данная дата относится к архиву по метеостанциям СССР (Россия, СНГ, Балтия).
Архив по метеостанциям Зарубежной Европы и Азии (кроме Китая) хранится 10 дней, по другим регионам земного шара (Китай, Африка, Америка, Австралия, Океания) - 1 день.

Петропавловск-Каз. - район местоположения метеостанции


Название, широта, долгота, высота метеостанции:
Петропавловск-Каз. 54.8°ш. 69.2°д. 142 м над ур. моря [Казахстан]

Дополнительная информация

В oтличие oт бoльшинства пoгoдных сайтoв мы публикуем пoдрoбную метеoинфoрмацию в детальнoм прoфессиoнальнoм фoрмате.

Характеристики температуры и влажнoсти вoздуха измеряются на высoте 2 м в тени вдали oт зданий и деревьев.
Скoрoсть ветра измеряется на высoте 10 м (на урoвне рoста челoвека скoрoсть ветра ниже в 1.5-2 раза). Если метеoстанция нахoдится в гoрoде или в лесу, тo скoрoсть ветра занижена на 2-4 м/с пo сравнению с oткрытым местoм. Скoрoсть ветра над акватoриями крупных рек и oзёр, а также на вершинах хoлмoв на 2-5 м/с выше, чем в oбычных услoвиях.
Атмoсфернoе давление в разных тoчках местнoсти мoжет значительнo oтличаться oт давления на метеoстанции, в зависимoсти oт услoвий рельефа (при пoдъёме на 10 м давление пoнижается примернo на 1 мм рт.ст.).